Time,TemperatureF,DewpointF,PressureIn,WindDirection,WindDirectionDegrees,WindSpeedMPH,WindSpeedGustMPH,Humidity,HourlyPrecipIn,Conditions,Clouds,dailyrainin,SoftwareType,DateUTC
2013-06-11 16:40:00,59.0,56.0,29.56,East,84,0.0,1.0,90,0.00,,,0.77,weatherlink.com 1.10,2013-06-11 20:40:00,
2013-06-11 16:52:00,59.0,56.0,29.56,North,360,0.0,3.0,89,0.00,,,0.77,weatherlink.com 1.10,2013-06-11 20:52:00,
2013-06-11 17:08:00,59.0,56.0,29.55,North,360,0.0,1.0,89,0.00,,,0.77,weatherlink.com 1.10,2013-06-11 21:08:00,
2013-06-11 17:23:00,59.0,56.0,29.54,West,271,0.0,1.0,90,0.00,,,0.77,weatherlink.com 1.10,2013-06-11 21:23:00,
2013-06-11 17:38:00,58.5,56.0,29.54,NNE,22,1.0,3.0,91,0.03,,,0.80,weatherlink.com 1.10,2013-06-11 21:38:00,
2013-06-11 17:53:00,57.7,55.0,29.53,NE,37,0.0,1.0,92,0.06,,,0.83,weatherlink.com 1.10,2013-06-11 21:53:00,
2013-06-11 18:08:00,57.0,55.0,29.53,South,182,0.0,2.0,93,0.09,,,0.86,weatherlink.com 1.10,2013-06-11 22:08:00,
2013-06-11 18:23:00,56.8,55.0,29.53,South,182,0.0,1.0,95,0.11,,,0.88,weatherlink.com 1.10,2013-06-11 22:23:00,
2013-06-11 18:38:00,56.7,55.0,29.52,South,183,0.0,1.0,95,0.10,,,0.90,weatherlink.com 1.10,2013-06-11 22:38:00,
2013-06-11 18:53:00,56.6,56.0,29.52,West,265,0.0,0.0,96,0.09,,,0.92,weatherlink.com 1.10,2013-06-11 22:53:00,
2013-06-11 19:08:00,56.5,55.0,29.53,West,265,0.0,1.0,96,0.08,,,0.95,weatherlink.com 1.10,2013-06-11 23:08:00,
2013-06-11 19:23:00,56.4,55.0,29.53,West,265,0.0,0.0,96,0.10,,,0.98,weatherlink.com 1.10,2013-06-11 23:23:00,
2013-06-11 19:38:00,56.3,55.0,29.53,West,265,0.0,1.0,96,0.09,,,1.00,weatherlink.com 1.10,2013-06-11 23:38:00,
2013-06-11 19:53:00,56.1,55.0,29.52,West,265,0.0,0.0,96,0.17,,,1.09,weatherlink.com 1.10,2013-06-11 23:53:00,
2013-06-11 20:08:00,56.0,55.0,29.52,West,264,0.0,0.0,97,0.23,,,1.18,weatherlink.com 1.10,2013-06-12 00:08:00,
2013-06-11 20:23:00,55.9,55.0,29.52,West,265,0.0,0.0,97,0.22,,,1.20,weatherlink.com 1.10,2013-06-12 00:23:00,
2013-06-11 20:38:00,55.8,55.0,29.52,West,265,0.0,0.0,97,0.21,,,1.21,weatherlink.com 1.10,2013-06-12 00:38:00,
2013-06-11 20:53:00,55.7,55.0,29.52,West,265,0.0,0.0,97,0.13,,,1.22,weatherlink.com 1.10,2013-06-12 00:53:00,
2013-06-11 21:08:00,55.5,55.0,29.52,West,265,0.0,1.0,97,0.05,,,1.23,weatherlink.com 1.10,2013-06-12 01:08:00,
2013-06-11 21:23:00,55.3,55.0,29.52,West,265,0.0,0.0,97,0.04,,,1.24,weatherlink.com 1.10,2013-06-12 01:23:00,
2013-06-11 21:38:00,55.2,54.0,29.52,West,265,0.0,0.0,97,0.03,,,1.24,weatherlink.com 1.10,2013-06-12 01:38:00,
2013-06-11 21:53:00,55.2,54.0,29.52,West,264,0.0,1.0,97,0.02,,,1.24,weatherlink.com 1.10,2013-06-12 01:53:00,
2013-06-11 22:08:00,55.1,54.0,29.52,West,264,0.0,0.0,97,0.01,,,1.24,weatherlink.com 1.10,2013-06-12 02:08:00,
2013-06-11 22:23:00,55.0,54.0,29.52,West,264,0.0,0.0,97,0.00,,,1.24,weatherlink.com 1.10,2013-06-12 02:23:00,
2013-06-11 22:38:00,55.0,55.0,29.52,West,264,0.0,0.0,98,0.01,,,1.25,weatherlink.com 1.10,2013-06-12 02:38:00,
2013-06-11 22:53:00,55.0,55.0,29.52,West,265,0.0,0.0,98,0.02,,,1.26,weatherlink.com 1.10,2013-06-12 02:53:00,
2013-06-11 23:08:00,54.9,54.0,29.52,West,265,0.0,0.0,98,0.02,,,1.26,weatherlink.com 1.10,2013-06-12 03:08:00,
2013-06-11 23:23:00,54.8,54.0,29.51,West,264,0.0,0.0,98,0.03,,,1.27,weatherlink.com 1.10,2013-06-12 03:23:00,
2013-06-11 23:38:00,54.8,54.0,29.51,West,265,0.0,0.0,98,0.03,,,1.28,weatherlink.com 1.10,2013-06-12 03:38:00,
2013-06-11 23:53:00,54.8,54.0,29.51,West,264,0.0,0.0,98,0.02,,,1.28,weatherlink.com 1.10,2013-06-12 03:53:00,